ELEKTRON 3 DEB, 29008

Orbit data source: Space-Track

ELEKTRON 3 DEB, 29008 is space debris originally from a launch on Fri, 10 Jul 1964 UTC launched from the Tyuratam Missile And Space Complex (TTMTR). Debris objects in space refer to the collection of defunct objects orbiting the Earth. Examples of debris include non-operational satellites, rocket bodies, and fragments generated from explosions, collisions, or faulty payload assembly.

Loading next visibility...
Identifier
29008, 1964-038G
Orbit
Active
Country
Flag of CISCIS
Related business
Manufacturer
Unknown
Mission
Spacecraft
Bus & Motor
Unknown
Mass
Unknown
Launch date (UTC)
1964-07-10 (62 years ago)
Launch vehicle
Unknown
Launch site
Tyuratam Missile And Space Complex (TTMTR)
Object type
Payload
Rocket body
Debris
Shape & HBR
Unknown shape, 0.1 m
Radar Cross Section
Small (<0.1 m²)

Expand to show TLE details & history
Last TLE update: 5 days ago

TLE from 5 days ago
0 ELEKTRON 3 DEB
1 29008U 64038G   26125.47945919  .00001097  00000-0  28257-3 0  9998
2 29008  60.8299 201.1767 2863039  22.7605 347.8075  9.37446654727954
Epoch: 2026-05-05T11:30Z
TLE epoch observation values (Epoch: 2026-05-05T11:30:25.274Z)
Latitude
-0.00003°
Longitude
165.21767°
Altitude
522.302 km
Speed
8.58 km/s
True Right ascension
13h 24m 42s
True Declination
0° 00' 00"
Sunlit
Object was in full shadow at epoch
Visualization orbit readout
Latitude
Unknown
Longitude
Unknown
Altitude
Unknown
Speed
Unknown
Apparent Right ascension
Unknown
Apparent Declination
Unknown
Sunlit
N/A
Visualization observer readout
Local Sidereal Time
13:29:03
Azimuth
Unknown
Elevation
Unknown
Doppler factor
Unknown
Orbital elements
Apogee altitude
5,842.112 km
Perigee altitude
402.177 km
Semi-major axis
9,500.281 km
Eccentricity
0.2863
Inclination
60.8299°
RAAN
201.1767°
Arg. of periapsis
22.7605°
True anomaly
337.33058°
Mean anomaly
347.8075°
Eccentric anomaly
343.01574°
Mean motion
2.3439 °/min
Orbital period
153.59 mins
BSTAR
0.00028257
Loading maneuver chart data...
Computing Atmospheric mass density...
Loading historical data...
Loading historical data...
Loading historical data...
Loading historical data...
Loading historical data...
Loading historical data...
Loading historical data...

Documentation

Showing up to 5 results
|